This is the latest recevied weather packets stored in our database for station/object KC5DAQ-22. If no packets are shown the sender has not sent any weather packets the latest 10 day(s).
| Time | Temp. | Humidity | Pressure | Rain* | Wind** | Luminosity | Snow |
|---|---|---|---|---|---|---|---|
| 1777323362 | 32.22° C | 67% | 1008.2 hPa | 0 mm | - | 512 W/m² | - |
| 1777323304 | 32.22° C | 68% | 1008.2 hPa | 0 mm | - | 837 W/m² | - |
| 1777323242 | 31.67° C | 68% | 1008.2 hPa | 0 mm | - | 821 W/m² | - |
| 1777323184 | 32.22° C | 67% | 1008.2 hPa | 0 mm | - | 471 W/m² | - |
| 1777323122 | 32.22° C | 67% | 1008.3 hPa | 0 mm | - | 392 W/m² | - |
| 1777323063 | 32.22° C | 66% | 1008.2 hPa | 0 mm | - | 350 W/m² | - |
| 1777323004 | 32.22° C | 66% | 1008.4 hPa | 0 mm | - | 538 W/m² | - |
| 1777322944 | 32.22° C | 67% | 1008.3 hPa | 0 mm | - | 538 W/m² | - |
| 1777322882 | 32.22° C | 67% | 1008.3 hPa | 0 mm | - | 433 W/m² | - |
| 1777322824 | 32.22° C | 66% | 1008.3 hPa | 0 mm | - | 413 W/m² | - |
| 1777322764 | 32.22° C | 66% | 1008.3 hPa | 0 mm | - | 346 W/m² | - |
| 1777322703 | 32.78° C | 66% | 1008.3 hPa | 0 mm | - | 651 W/m² | - |
| 1777322642 | 32.78° C | 66% | 1008.4 hPa | 0 mm | - | 812 W/m² | - |
| 1777322583 | 32.78° C | 65% | 1008.3 hPa | 0 mm | - | 679 W/m² | - |
| 1777322523 | 32.78° C | 66% | 1008.4 hPa | 0 mm | - | 422 W/m² | - |
| 1777322463 | 32.78° C | 66% | 1008.3 hPa | 0 mm | - | 842 W/m² | - |
| 1777322405 | 32.78° C | 67% | 1008.3 hPa | 0 mm | - | 833 W/m² | - |
| 1777322342 | 32.22° C | 67% | 1008.3 hPa | 0 mm | - | 886 W/m² | - |
| 1777322282 | 32.22° C | 66% | 1008.3 hPa | 0 mm | - | 900 W/m² | - |
| 1777322222 | 32.78° C | 66% | 1008.3 hPa | 0 mm | - | 387 W/m² | - |
| 1777322163 | 32.78° C | 65% | 1008.3 hPa | 0 mm | - | 418 W/m² | - |
| 1777322102 | 32.78° C | 66% | 1008.3 hPa | 0 mm | - | 403 W/m² | - |
| 1777322043 | 32.78° C | 66% | 1008.2 hPa | 0 mm | - | 677 W/m² | - |
| 1777321984 | 32.22° C | 67% | 1008.3 hPa | 0 mm | - | 879 W/m² | - |
| 1777321924 | 32.22° C | 67% | 1008.3 hPa | 0 mm | - | 603 W/m² | - |
* Rain latest hour (hover to see other rain measurements)
** Current wind speed in m/s (hover to see current wind gust speed)